This demonstration page uses our WeatherBlox Daily Observations layout. Learn more.

Left ArrowRight Arrow

Hourly Observations for May 12, 2020

Temp ( °F °C ) Dew Point ( °F °C ) Humidity (%) Winds ( mph kmh ) Pressure ( in mb ) Visibility ( mi km ) Precip ( " mm )
12:54 am 00:54 Cloudy 46 7.8 29 -1.7 51 51 NNW 5 7 30.27 1025 10 16.0934 0 0
1:54 am 01:54 Cloudy 45 7.2 29 -1.7 54 54 Calm 30.26 1025 10 16.0934 0 0
2:54 am 02:54 Cloudy 46 7.8 28 -2.2 50 50 NNW 3 6 30.24 1024 10 16.0934 0 0
3:54 am 03:54 Cloudy 45 7.2 30 -1.1 56 56 NNW 3 6 30.24 1024 10 16.0934 0 0
4:54 am 04:54 Cloudy 45 7.2 30 -1.1 56 56 Calm 30.24 1024 10 16.0934 0.001 0.001
5:54 am 05:54 Cloudy 45 7.2 30 -1.1 56 56 Calm 30.24 1024 10 16.0934 0 0
6:54 am 06:54 Cloudy 45 7.2 33 0.6 63 63 Calm 30.24 1024 10 16.0934 0 0
7:54 am 07:54 Cloudy 46 7.8 32 0 58 58 Calm 30.25 1024 10 16.0934 0 0
8:54 am 08:54 Cloudy 48 8.9 32 0 54 54 E 5 7 30.25 1024 10 16.0934 0 0
9:54 am 09:54 Cloudy 49 9.4 32 0 52 52 E 6 9 30.25 1024 10 16.0934 0 0
10:54 am 10:54 Cloudy 52 11.1 30 -1.1 43 43 ESE 6 9 30.23 1024 10 16.0934 0 0
11:54 am 11:54 Cloudy 54 12.2 29 -1.7 38 38 E 9 15 30.22 1023 10 16.0934 0 0
12:54 pm 12:54 Cloudy 57 13.9 30 -1.1 36 36 SE 10 17 30.19 1023 10 16.0934 0 0
1:54 pm 13:54 Mostly Cloudy 58 14.4 30 -1.1 35 35 SE 7 11 30.16 1021 10 16.0934 0 0
2:54 pm 14:54 Cloudy 60 15.6 31 -0.6 33 33 SE 12 19 30.13 1020 10 16.0934 0 0
3:54 pm 15:54 Cloudy 60 15.6 32 0 35 35 SSE 8 13 30.11 1020 10 16.0934 0 0
4:54 pm 16:54 Cloudy 61 16.1 31 -0.6 32 32 SE 12 19 30.09 1019 10 16.0934 0 0
5:54 pm 17:54 Cloudy 60 15.6 31 -0.6 33 33 ESE 15 24 30.09 1019 10 16.0934 0 0
6:54 pm 18:54 Cloudy 58 14.4 32 0 38 38 SSE 13 20 30.08 1019 10 16.0934 0 0
7:54 pm 19:54 Mostly Sunny 57 13.9 30 -1.1 36 36 SE 13 20 30.06 1018 10 16.0934 0 0
8:54 pm 20:54 Clear 53 11.7 30 -1.1 41 41 SSE 12 19 30.07 1018 10 16.0934 0 0
9:54 pm 21:54 Clear 52 11.1 31 -0.6 45 45 SE 9 15 30.08 1019 10 16.0934 0 0
10:54 pm 22:54 Clear 50 10 33 0.6 52 52 SE 8 13 30.07 1018 10 16.0934 0 0
11:54 pm 23:54 Partly Cloudy 49 9.4 36 2.2 61 61 SSE 10 17 30.07 1018 10 16.0934 0 0

Powered by AerisWeather